Stations météo

réclame
Mon MeteoGroup
Cardinham, Grande-Bretagne (3823): Température de l'air & dewpoint: 14.08.2018 18:00:00 - 20.08.2018 18:00:00 (BST)Cardinham, Grande-Bretagne (3823): Température de l'air -20cm & Température de l'air -100cm: 14.08.2018 18:00:00 - 20.08.2018 18:00:00 (BST)Cardinham, Grande-Bretagne (3823): Vitesse du vent: 14.08.2018 18:00:00 - 20.08.2018 18:00:00 (BST)Cardinham, Grande-Bretagne (3823): Direction du vent: 14.08.2018 18:00:00 - 20.08.2018 18:00:00 (BST)Cardinham, Grande-Bretagne (3823): reduced air pressure: 14.08.2018 18:00:00 - 20.08.2018 18:00:00 (BST)Cardinham, Grande-Bretagne (3823): visibility: 14.08.2018 18:00:00 - 20.08.2018 18:00:00 (BST)Cardinham, Grande-Bretagne (3823): Quantités de précipitations: 14.08.2018 18:00:00 - 20.08.2018 18:00:00 (BST)
Date & Time tt [°C] td [°C] tt -20cm [°C] tt -100cm [°C] ff [km/h] ff [knt] dd ppp [hPa] vv [km] rr [mm]
20.08.2018 18:00:00 - - - - - - - - - 0,0
20.08.2018 17:00:00 18,5 17,6 - - 18 10 W 1021,1 28 0,0
20.08.2018 16:00:00 18,4 18,0 - - 18 10 W 1021,5 2,9 0,2
20.08.2018 15:00:00 18,9 18,2 - - 16 9 W 1021,7 3,9 0,0
20.08.2018 14:00:00 18,3 17,9 - - 11 6 WNW 1021,8 7 0,4
20.08.2018 13:00:00 18,3 18,0 - - 13 7 W 1021,9 7 0,2
20.08.2018 12:00:00 18,1 17,8 - - 16 9 W 1021,9 4,9 0,2
20.08.2018 11:00:00 18,7 18,7 - - 15 8 W 1021,8 25 0,0
20.08.2018 10:00:00 17,8 17,8 18,2 17,0 11 6 W 1022,0 2,7 0,0
20.08.2018 09:00:00 17,5 17,5 - - 11 6 W 1021,9 12 0,2
20.08.2018 08:00:00 16,8 16,8 - - 13 7 W 1021,9 2,6 0,0
20.08.2018 07:00:00 16,8 16,8 - - 13 7 WNW 1021,5 0,6 0,2
20.08.2018 06:00:00 16,9 16,8 - - 13 7 W 1021,2 0,3 0,8
20.08.2018 05:00:00 16,6 16,6 - - 11 6 W 1021,2 0,2 0,8
20.08.2018 04:00:00 16,6 16,6 - - 13 7 W 1021,4 0,2 0,0
20.08.2018 03:00:00 16,8 16,8 - - 11 6 WNW 1021,5 0,1 0,0
20.08.2018 02:00:00 16,7 16,7 - - 8 4 WNW 1021,9 0,1 0,0
20.08.2018 01:00:00 16,6 16,5 - - 9 5 W 1022,0 0,1 0,2
20.08.2018 00:00:00 16,6 16,5 - - 13 7 WNW 1022,0 0,1 0,0
19.08.2018 23:00:00 16,6 16,6 - - 15 8 WNW 1022,2 0,2 0,0
19.08.2018 22:00:00 16,7 16,6 - - 15 8 W 1022,1 0,1 0,0
19.08.2018 21:00:00 16,8 16,7 - - 18 10 WNW 1021,5 0,2 0,0
19.08.2018 20:00:00 17,0 16,8 - - 16 9 WNW 1021,3 8 0,0
19.08.2018 19:00:00 17,2 17,0 - - 21 11 WNW 1021,1 12 0,0
19.08.2018 18:00:00 17,2 17,1 - - 22 12 WNW 1020,9 11 0,0
19.08.2018 17:00:00 17,4 17,3 - - 24 13 W 1021,1 3,5 0,2
19.08.2018 16:00:00 17,4 17,3 - - 22 12 W 1021,0 0,1 0,0
19.08.2018 15:00:00 17,6 17,5 - - 22 12 W 1021,1 0,5 0,0
19.08.2018 14:00:00 17,9 17,8 - - 21 11 W 1020,8 0,8 0,0
19.08.2018 13:00:00 17,8 17,7 - - 18 10 W 1020,7 1,1 0,0
19.08.2018 12:00:00 18,0 17,9 - - 16 9 W 1020,6 0,9 0,0
19.08.2018 11:00:00 17,7 17,6 - - 22 12 W 1020,5 1,8 0,2
19.08.2018 10:00:00 17,7 17,7 18,2 17,0 22 12 W 1020,2 1,6 0,0
19.08.2018 09:00:00 17,2 17,1 - - 18 10 W 1019,8 2,6 0,4
19.08.2018 08:00:00 16,7 16,6 - - 24 13 W 1019,6 2,0 0,2
19.08.2018 07:00:00 16,4 16,3 - - 21 11 W 1019,6 2,6 0,2
19.08.2018 06:00:00 16,2 16,0 - - 22 12 WSW 1019,6 2,1 0,0
19.08.2018 05:00:00 15,9 15,6 - - 21 11 WSW 1019,8 2,2 0,0
19.08.2018 04:00:00 15,8 15,2 - - 18 10 WSW 1020,3 8 0,0
19.08.2018 03:00:00 15,3 14,7 - - 16 9 SSW 1020,7 12 0,0
19.08.2018 02:00:00 15,0 14,4 - - 16 9 S 1020,9 13 0,0
19.08.2018 01:00:00 15,1 14,2 - - 15 8 S 1021,2 15 0,0
19.08.2018 00:00:00 15,6 14,3 - - 11 6 SSW 1021,5 18 0,0
18.08.2018 23:00:00 15,6 14,3 - - 21 11 SW 1021,7 14 0,0
18.08.2018 22:00:00 15,1 14,1 - - 15 8 SW 1022,0 17 0,0
18.08.2018 21:00:00 15,5 13,7 - - 13 7 SSW 1021,9 20 0,0
18.08.2018 20:00:00 17,8 15,0 - - 11 6 SW 1021,4 20 0,0
18.08.2018 19:00:00 18,5 15,5 - - 11 6 W 1021,5 23 0,0
18.08.2018 18:00:00 18,6 16,1 - - 11 6 W 1021,6 23 0,0
18.08.2018 17:00:00 17,4 16,2 - - 15 8 W 1021,8 3,3 0,0
18.08.2018 16:00:00 18,2 16,1 - - 16 9 WSW 1021,8 17 0,0
18.08.2018 15:00:00 19,1 15,6 - - 16 9 W 1022,1 20 0,0
18.08.2018 14:00:00 19,0 15,0 - - 18 10 W 1022,4 30 0,0
18.08.2018 13:00:00 19,3 14,7 - - 18 10 W 1022,5 30 0,0
18.08.2018 12:00:00 17,3 15,2 - - 16 9 W 1022,7 21 0,0
18.08.2018 11:00:00 17,2 14,9 - - 21 11 WSW 1022,3 20 0,0
18.08.2018 10:00:00 17,1 14,6 18,2 17,0 21 11 W 1022,2 18 0,0
18.08.2018 09:00:00 16,0 14,9 - - 16 9 WSW 1022,4 13 0,0
18.08.2018 08:00:00 15,1 14,7 - - 15 8 WSW 1022,0 9 0,0
18.08.2018 07:00:00 14,4 14,1 - - 9 5 SW 1021,9 8 0,2
18.08.2018 06:00:00 14,6 13,7 - - 13 7 W 1021,7 10 0,0
18.08.2018 05:00:00 14,5 13,6 - - 13 7 W 1021,6 10 0,0
18.08.2018 04:00:00 14,4 13,8 - - 18 10 W 1021,6 12 0,0
18.08.2018 03:00:00 14,7 14,4 - - 13 7 W 1021,6 4,1 0,0
18.08.2018 02:00:00 14,8 14,6 - - 16 9 W 1022,1 6 0,2
18.08.2018 01:00:00 14,9 14,6 - - 18 10 WSW 1022,5 2,3 0,0
18.08.2018 00:00:00 14,9 14,2 - - 15 8 WSW 1022,9 3,9 0,0
17.08.2018 23:00:00 14,9 13,8 - - 13 7 WSW 1022,9 11 0,0
17.08.2018 22:00:00 15,0 13,3 - - 16 9 W 1022,6 12 0,0
17.08.2018 21:00:00 15,0 12,8 - - 16 9 W 1022,3 16 0,0
17.08.2018 20:00:00 15,3 12,8 - - 16 9 W 1022,3 16 0,0
17.08.2018 19:00:00 15,9 12,8 - - 22 12 W 1021,9 20 0,0
17.08.2018 18:00:00 16,0 12,1 - - 24 13 W 1022,1 25 0,0
17.08.2018 17:00:00 16,5 12,1 - - 24 13 W 1022,0 18 0,0
17.08.2018 16:00:00 16,6 11,6 - - 22 12 W 1022,3 24 0,0
17.08.2018 15:00:00 17,2 11,8 - - 18 10 W 1022,4 20 0,0
17.08.2018 14:00:00 15,2 13,1 - - 11 6 WNW 1022,9 13 0,0
17.08.2018 13:00:00 17,0 11,8 - - 18 10 W 1022,4 23 0,0
17.08.2018 12:00:00 16,9 10,6 - - 21 11 WNW 1022,3 35 0,0
17.08.2018 11:00:00 16,5 11,3 - - 18 10 WNW 1022,3 22 0,0
17.08.2018 10:00:00 15,0 13,7 18,2 17,0 11 6 NW 1022,0 26 0,0
17.08.2018 09:00:00 15,4 12,3 - - 9 5 NW 1021,3 24 0,0
17.08.2018 08:00:00 13,4 12,5 - - 9 5 W 1021,2 28 0,0
17.08.2018 07:00:00 12,1 11,2 - - 11 6 W 1020,7 19 0,0
17.08.2018 06:00:00 12,7 11,9 - - 9 5 W 1020,2 16 0,2
17.08.2018 05:00:00 12,6 11,8 - - 11 6 W 1019,9 16 0,0
17.08.2018 04:00:00 13,0 12,2 - - 11 6 W 1019,8 15 0,0
17.08.2018 03:00:00 12,9 11,9 - - 11 6 WNW 1019,6 15 0,0
17.08.2018 02:00:00 12,9 12,0 - - 11 6 WNW 1019,5 15 0,0
17.08.2018 01:00:00 12,9 11,8 - - 11 6 WNW 1019,5 16 0,0
17.08.2018 00:00:00 12,9 12,0 - - 13 7 WNW 1019,2 13 0,0
16.08.2018 23:00:00 12,7 11,5 - - 11 6 WNW 1019,0 13 0,0
16.08.2018 22:00:00 12,8 11,4 - - 13 7 WNW 1018,4 15 0,0
16.08.2018 21:00:00 13,5 11,0 - - 16 9 WNW 1017,9 18 0,0
16.08.2018 20:00:00 14,3 11,4 - - 18 10 NW 1017,2 19 0,0
16.08.2018 19:00:00 15,2 11,3 - - 21 11 WNW 1016,8 17 0,0
16.08.2018 18:00:00 16,2 11,4 - - 24 13 WNW 1016,6 22 0,0
16.08.2018 17:00:00 16,4 11,4 - - 24 13 WNW 1016,4 30 0,0
16.08.2018 16:00:00 15,5 12,4 - - 16 9 WNW 1016,1 29 0,0
16.08.2018 15:00:00 15,9 10,8 - - 21 11 WNW 1015,7 25 0,0
16.08.2018 14:00:00 16,9 11,2 - - 21 11 WNW 1015,3 40 0,0
16.08.2018 13:00:00 18,5 12,6 - - 22 12 WNW 1014,8 21 0,0
16.08.2018 12:00:00 16,6 12,1 - - 18 10 WNW 1014,8 18 0,0
16.08.2018 11:00:00 17,4 14,9 - - 18 10 NNW 1014,5 13 0,0
16.08.2018 10:00:00 15,0 14,8 18,2 17,0 13 7 WNW 1014,4 9 0,0
16.08.2018 09:00:00 14,2 14,0 - - 11 6 W 1014,2 8 0,0
16.08.2018 08:00:00 13,7 13,5 - - 9 5 W 1013,7 7 0,2
16.08.2018 07:00:00 13,7 13,4 - - 11 6 WNW 1013,7 4,7 3,2
16.08.2018 06:00:00 14,8 14,6 - - 21 11 W 1013,3 5 2,4
16.08.2018 05:00:00 15,2 14,9 - - 16 9 W 1013,3 9 0,4
16.08.2018 04:00:00 15,9 15,8 - - 22 12 W 1013,4 3,4 0,6
16.08.2018 03:00:00 16,3 16,1 - - 24 13 SW 1013,7 2,6 0,4
16.08.2018 02:00:00 16,2 16,0 - - 24 13 SW 1014,3 4,4 0,6
16.08.2018 01:00:00 16,2 16,0 - - 24 13 SW 1014,8 2,6 0,4
16.08.2018 00:00:00 16,2 15,9 - - 22 12 SSW 1015,2 4,8 0,0
15.08.2018 23:00:00 16,1 15,9 - - 18 10 SSW 1015,7 5 0,2
15.08.2018 22:00:00 16,1 15,7 - - 15 8 SSW 1016,4 3,9 0,0
15.08.2018 21:00:00 16,0 15,8 - - 21 11 WSW 1016,6 7 0,4
15.08.2018 20:00:00 16,5 16,0 - - 22 12 WSW 1016,7 26 0,2
15.08.2018 19:00:00 16,8 15,7 - - 21 11 WSW 1016,8 6 0,0
15.08.2018 18:00:00 18,0 15,7 - - 18 10 SW 1017,2 35 0,0
15.08.2018 17:00:00 18,4 15,7 - - 22 12 WSW 1017,5 28 0,0
15.08.2018 16:00:00 18,9 15,3 - - 22 12 SW 1017,8 40 0,0
15.08.2018 15:00:00 19,0 15,8 - - 18 10 WSW 1018,3 30 0,0
15.08.2018 14:00:00 19,5 15,8 - - 21 11 WSW 1018,5 26 0,0
15.08.2018 13:00:00 19,6 15,5 - - 18 10 WSW 1018,8 45 0,0
15.08.2018 12:00:00 18,5 15,7 - - 18 10 SW 1019,0 35 0,0
15.08.2018 11:00:00 17,8 15,2 - - 18 10 WSW 1019,3 20 0,0
15.08.2018 10:00:00 17,5 15,8 18,2 17,2 15 8 SW 1019,3 24 0,0
15.08.2018 09:00:00 16,3 15,0 - - 15 8 SW 1019,6 28 0,0
15.08.2018 08:00:00 15,9 15,4 - - 16 9 WSW 1019,5 14 0,0
15.08.2018 07:00:00 15,5 15,1 - - 16 9 WSW 1019,6 14 0,0
15.08.2018 06:00:00 15,4 15,2 - - 21 11 WSW 1019,4 8 0,0
15.08.2018 05:00:00 15,1 14,9 - - 15 8 WSW 1019,5 6 0,0
15.08.2018 04:00:00 15,0 14,7 - - 11 6 W 1019,8 8 0,0
15.08.2018 03:00:00 15,0 14,7 - - 13 7 WSW 1020,0 5 0,0
15.08.2018 02:00:00 15,0 14,6 - - 13 7 W 1020,1 12 0,0
15.08.2018 01:00:00 15,4 15,0 - - 13 7 WNW 1020,1 8 0,0
15.08.2018 00:00:00 15,3 14,9 - - 13 7 W 1020,3 8 0,0
14.08.2018 23:00:00 15,2 14,4 - - 9 5 WNW 1020,4 11 0,0
14.08.2018 22:00:00 15,5 13,8 - - 15 8 WNW 1020,6 18 0,0
14.08.2018 21:00:00 16,1 13,7 - - 22 12 WNW 1020,4 28 0,0
14.08.2018 20:00:00 16,2 14,9 - - 21 11 W 1020,0 13 0,0
14.08.2018 19:00:00 16,7 14,9 - - 21 11 W 1019,8 16 0,0
14.08.2018 18:00:00 17,0 14,4 - - 18 10 W 1020,0 21 0,0

tt = Température de l'air
td = dewpoint
tt -20cm = Température de l'air -20cm
tt -100cm = Température de l'air -100cm
ff = Vitesse du vent
dd = Direction du vent
ppp = reduced air pressure
vv = visibility
rr = Quantités de précipitations

stations d'obs. à proximité